ATLAS 5 CENTAUR DEB, 44680

Orbit data source: Space-Track

ATLAS 5 CENTAUR DEB, 44680 is space debris in HEO originally from a launch on Wed, 17 Oct 2018 UTC launched from the Air Force Eastern Test Range (AFETR). Debris objects in space refer to the collection of defunct objects orbiting the Earth. Examples of debris include non-operational satellites, rocket bodies, and fragments generated from explosions, collisions, or faulty payload assembly.

Loading next visibility...
Identifier
44680, 2018-079AS
Orbit
HEO
Country
Flag of USUS
Related business
Flag of USUnited Launch Alliance/Lockheed Martin (US)
Manufacturer
ULA Decatur
Mission
Spacecraft
Bus & Motor
Unknown
Mass
Unknown
Launch date (UTC)
2018-10-17 (8 years ago)
Launch vehicle
Unknown
Launch site
Air Force Eastern Test Range (AFETR)
Object type
Payload
Rocket body
Debris
Shape & HBR
Unknown shape, 1.1 m
Radar Cross Section
Medium (>0.1 m² and <1 m²)

Expand to show TLE details & history
Last TLE update: 3 days ago

TLE from 3 days ago
0 ATLAS 5 CENTAUR DEB
1 44680U 18079AS  26170.51443527 -.00000108  00000-0  00000-0 0  9994
2 44680  13.3353  48.7575 4690918 283.7516  29.6985  1.75588307 45504
Epoch: 2026-06-19T12:20Z
TLE epoch observation values (Epoch: 2026-06-19T12:20:47.207Z)
Latitude
0.00008°
Longitude
-44.20455°
Altitude
14,018.434 km
Speed
5.035 km/s
True Right ascension
03h 14m 56s
True Declination
0° 00' 00"
Sunlit
Object was in daylight at epoch
Visualization orbit readout
Latitude
Unknown
Longitude
Unknown
Altitude
Unknown
Speed
Unknown
Apparent Right ascension
Unknown
Apparent Declination
Unknown
Sunlit
N/A
Visualization observer readout
Local Sidereal Time
21:37:23
Azimuth
Unknown
Elevation
Unknown
Doppler factor
Unknown
Orbital elements
Apogee altitude
36,261.908 km
Perigee altitude
9,031.349 km
Semi-major axis
29,024.765 km
Eccentricity
0.46909
Inclination
13.3353°
RAAN
48.7575°
Arg. of periapsis
283.7516°
True anomaly
76.11909°
Mean anomaly
29.6985°
Eccentric anomaly
50.4108°
Mean motion
0.43892 °/min
Orbital period
820.19 mins
BSTAR
0
Loading maneuver chart data...
Computing Atmospheric mass density...

Documentation

Showing up to 5 results
|